• In Hungary
  • List of Countries
  • For 7 days
  • Water Temperature
  • Satellite Maps
  • Weather Map
  • News
  • Weather Widgets
  • user-avatar
    Login

    Hourly Weather Krizhopol

    Today, 21 September, Friday

    Time Temperature Precipitation Wind Pressure Humidity
    00:00 +17°C° 0 mm 0 mps 740 mmHg 49%
    01:00 +17°C° 0 mm 0 mps 740 mmHg 50%
    02:00 +16°C° 0 mm 0 mps 740 mmHg 51%
    03:00 +16°C° 0 mm 0 mps 740 mmHg 52%
    04:00 +16°C° 0 mm 0 mps 740 mmHg 52%
    05:00 +15°C° 0 mm 0 mps 740 mmHg 53%
    06:00 +19°C° 0 mm 1 mps 740 mmHg 51%
    07:00 +20°C° 0 mm 1 mps 740 mmHg 49%
    08:00 +21°C° 0 mm 1 mps 741 mmHg 46%
    09:00 +23°C° 0 mm 1 mps 741 mmHg 42%
    10:00 +25°C° 0 mm 2 mps 741 mmHg 39%
    11:00 +27°C° 0 mm 2 mps 741 mmHg 35%
    12:00 +27°C° 0 mm 2 mps 741 mmHg 33%
    13:00 +28°C° 0 mm 2 mps 740 mmHg 31%
    14:00 +28°C° 0 mm 3 mps 740 mmHg 29%
    15:00 +28°C° 0 mm 2 mps 740 mmHg 32%
    16:00 +27°C° 0 mm 2 mps 740 mmHg 35%
    17:00 +26°C° 0 mm 2 mps 739 mmHg 38%
    18:00 +25°C° 0 mm 2 mps 739 mmHg 39%
    19:00 +23°C° 0 mm 2 mps 739 mmHg 41%
    20:00 +21°C° 0 mm 2 mps 739 mmHg 43%
    21:00 +20°C° 0 mm 2 mps 739 mmHg 44%
    22:00 +20°C° 0 mm 2 mps 739 mmHg 44%
    23:00 +19°C° 0 mm 2 mps 739 mmHg 45%

    Tomorrow, 22 September, Saturday

    Time Temperature Precipitation Wind Pressure Humidity
    00:00 +19°C° 0 mm 2 mps 738 mmHg 46%
    01:00 +18°C° 0 mm 2 mps 738 mmHg 48%
    02:00 +18°C° 0 mm 2 mps 738 mmHg 49%
    03:00 +18°C° 0 mm 2 mps 738 mmHg 50%
    04:00 +17°C° 0 mm 2 mps 738 mmHg 51%
    05:00 +17°C° 0 mm 2 mps 737 mmHg 52%
    06:00 +18°C° 0 mm 2 mps 738 mmHg 51%
    07:00 +19°C° 0 mm 3 mps 738 mmHg 50%
    08:00 +20°C° 0 mm 3 mps 738 mmHg 49%
    09:00 +22°C° 0 mm 3 mps 738 mmHg 44%
    10:00 +25°C° 0 mm 4 mps 738 mmHg 39%
    11:00 +27°C° 0 mm 4 mps 738 mmHg 34%
    12:00 +27°C° 0 mm 4 mps 737 mmHg 33%
    13:00 +28°C° 0 mm 4 mps 737 mmHg 31%
    14:00 +28°C° 0 mm 4 mps 737 mmHg 29%
    15:00 +28°C° 0 mm 3 mps 737 mmHg 33%
    16:00 +27°C° 0 mm 3 mps 736 mmHg 36%
    17:00 +26°C° 0 mm 2 mps 736 mmHg 40%
    18:00 +24°C° 0 mm 3 mps 736 mmHg 45%
    19:00 +21°C° 0 mm 4 mps 737 mmHg 51%
    20:00 +19°C° 0 mm 5 mps 737 mmHg 57%
    21:00 +17°C° 0.1 mm 5 mps 737 mmHg 63%
    22:00 +15°C° 0.1 mm 6 mps 737 mmHg 68%
    23:00 +14°C° 0.1 mm 7 mps 738 mmHg 74%

    Day after tomorrow, 23 September, Sunday

    Time Temperature Precipitation Wind Pressure Humidity
    00:00 +13°C° 0.5 mm 6 mps 738 mmHg 77%
    01:00 +11°C° 0.5 mm 6 mps 738 mmHg 80%
    02:00 +10°C° 0.5 mm 5 mps 738 mmHg 83%
    03:00 +10°C° 0 mm 5 mps 739 mmHg 83%
    04:00 +11°C° 0 mm 4 mps 739 mmHg 82%
    05:00 +10°C° 0 mm 4 mps 739 mmHg 81%
    06:00 +11°C° 0 mm 3 mps 739 mmHg 78%
    07:00 +11°C° 0 mm 3 mps 739 mmHg 74%
    08:00 +11°C° 0 mm 3 mps 739 mmHg 71%
    09:00 +13°C° 0 mm 4 mps 740 mmHg 63%
    10:00 +15°C° 0 mm 4 mps 740 mmHg 55%
    11:00 +18°C° 0 mm 4 mps 740 mmHg 47%
    12:00 +17°C° 0 mm 5 mps 740 mmHg 44%
    13:00 +19°C° 0 mm 5 mps 739 mmHg 42%
    14:00 +19°C° 0 mm 5 mps 739 mmHg 40%
    15:00 +19°C° 0 mm 5 mps 739 mmHg 41%
    16:00 +18°C° 0 mm 4 mps 739 mmHg 43%
    17:00 +18°C° 0 mm 3 mps 739 mmHg 45%
    18:00 +17°C° 0 mm 3 mps 739 mmHg 48%
    19:00 +15°C° 0 mm 2 mps 739 mmHg 51%
    20:00 +14°C° 0 mm 1 mps 740 mmHg 54%
    21:00 +14°C° 0 mm 1 mps 740 mmHg 55%
    22:00 +13°C° 0 mm 2 mps 739 mmHg 55%
    23:00 +13°C° 0 mm 2 mps 739 mmHg 56%

    24 September, Monday

    Time Temperature Precipitation Wind Pressure Humidity
    00:00 +13°C° 0 mm 2 mps 739 mmHg 56%
    01:00 +13°C° 0 mm 2 mps 738 mmHg 56%
    02:00 +12°C° 0 mm 3 mps 737 mmHg 56%
    03:00 +12°C° 0 mm 4 mps 736 mmHg 54%
    04:00 +12°C° 0 mm 5 mps 736 mmHg 52%
    05:00 +11°C° 0 mm 6 mps 735 mmHg 50%
    06:00 +12°C° 0 mm 7 mps 734 mmHg 55%
    07:00 +15°C° 0 mm 9 mps 733 mmHg 59%
    08:00 +16°C° 0 mm 10 mps 731 mmHg 64%
    09:00 +17°C° 0.4 mm 10 mps 731 mmHg 66%
    10:00 +17°C° 0.4 mm 10 mps 730 mmHg 68%
    11:00 +18°C° 0.4 mm 10 mps 729 mmHg 70%
    12:00 +18°C° 0.6 mm 10 mps 729 mmHg 69%
    13:00 +19°C° 0.6 mm 9 mps 729 mmHg 68%
    14:00 +19°C° 0.6 mm 9 mps 729 mmHg 67%
    15:00 +17°C° 0 mm 9 mps 730 mmHg 64%
    16:00 +14°C° 0 mm 10 mps 731 mmHg 61%
    17:00 +11°C° 0 mm 11 mps 732 mmHg 58%
    18:00 +11°C° 0 mm 10 mps 733 mmHg 59%
    19:00 +11°C° 0 mm 9 mps 734 mmHg 59%
    20:00 +10°C° 0 mm 8 mps 734 mmHg 60%
    21:00 +10°C° 0 mm 9 mps 735 mmHg 59%
    22:00 +10°C° 0 mm 9 mps 735 mmHg 58%
    23:00 +8°C° 0 mm 9 mps 735 mmHg 57%

    25 September, Tuesday

    Time Temperature Precipitation Wind Pressure Humidity
    00:00 +9°C° 0 mm 8 mps 735 mmHg 59%
    01:00 +7°C° 0 mm 8 mps 736 mmHg 61%
    02:00 +7°C° 0 mm 8 mps 736 mmHg 63%
    03:00 +6°C° 0 mm 8 mps 736 mmHg 65%
    04:00 +6°C° 0 mm 8 mps 736 mmHg 66%
    05:00 +5°C° 0 mm 8 mps 737 mmHg 68%
    06:00 +6°C° 0 mm 8 mps 737 mmHg 66%
    07:00 +7°C° 0 mm 9 mps 738 mmHg 65%
    08:00 +7°C° 0 mm 10 mps 738 mmHg 63%
    09:00 +7°C° 0 mm 9 mps 739 mmHg 63%
    10:00 +7°C° 0 mm 9 mps 739 mmHg 63%
    11:00 +7°C° 0 mm 9 mps 740 mmHg 63%
    12:00 +7°C° 0 mm 9 mps 740 mmHg 61%
    13:00 +8°C° 0 mm 9 mps 740 mmHg 59%
    14:00 +8°C° 0 mm 9 mps 741 mmHg 56%
    15:00 +9°C° 0 mm 8 mps 741 mmHg 55%
    16:00 +9°C° 0 mm 8 mps 742 mmHg 53%
    17:00 +9°C° 0 mm 7 mps 742 mmHg 52%
    18:00 +8°C° 0 mm 6 mps 743 mmHg 55%
    19:00 +7°C° 0 mm 6 mps 743 mmHg 58%
    20:00 +6°C° 0 mm 5 mps 744 mmHg 61%
    21:00 +6°C° 0 mm 5 mps 744 mmHg 63%
    22:00 +5°C° 0 mm 5 mps 744 mmHg 66%
    23:00 +5°C° 0 mm 5 mps 745 mmHg 68%

    26 September, Wednesday

    Time Temperature Precipitation Wind Pressure Humidity
    00:00 +5°C° 0 mm 5 mps 745 mmHg 69%
    01:00 +3°C° 0 mm 5 mps 745 mmHg 70%
    02:00 +4°C° 0 mm 4 mps 745 mmHg 71%
    03:00 +4°C° 0 mm 4 mps 745 mmHg 72%
    04:00 +3°C° 0 mm 4 mps 745 mmHg 73%
    05:00 +3°C° 0 mm 4 mps 746 mmHg 73%
    06:00 +3°C° 0 mm 5 mps 746 mmHg 70%
    07:00 +5°C° 0 mm 5 mps 746 mmHg 66%
    08:00 +6°C° 0 mm 5 mps 746 mmHg 63%
    09:00 +8°C° 0 mm 6 mps 745 mmHg 59%
    10:00 +10°C° 0 mm 7 mps 745 mmHg 55%
    11:00 +11°C° 0 mm 7 mps 745 mmHg 51%
    12:00 +12°C° 0 mm 8 mps 745 mmHg 49%
    13:00 +13°C° 0 mm 8 mps 744 mmHg 48%
    14:00 +15°C° 0 mm 8 mps 744 mmHg 46%
    15:00 +13°C° 0 mm 8 mps 744 mmHg 49%
    16:00 +12°C° 0 mm 8 mps 744 mmHg 52%
    17:00 +11°C° 0 mm 7 mps 744 mmHg 55%
    18:00 +10°C° 0 mm 7 mps 744 mmHg 58%
    19:00 +10°C° 0 mm 6 mps 744 mmHg 61%
    20:00 +9°C° 0 mm 6 mps 744 mmHg 64%
    21:00 +8°C° 0 mm 5 mps 744 mmHg 65%
    22:00 +8°C° 0 mm 5 mps 744 mmHg 67%
    23:00 +8°C° 0 mm 5 mps 744 mmHg 68%
    Show more